Wind_Speed
13 16 20 21 21 21 23 25 26 27 29 29 28 28 27 25 26 27 28 26 24 24 25 25 24 23 22 22 22 23 22 21 20 20 20 21 21 19 19 19 19 19 19 18 19 20 21 20 18 16 15 14 14 13 11 11 12 13 13 11 10 12 12 12 14 13 11 10 9 8 10 10 10 11 11 13 14 13 12 11 11 13 13 12 12
11 14 16 19 19 20 23 25 27 27 28 29 29 29 28 27 26 26 27 26 24 24 25 25 25 25 24 23 21 21 22 22 22 21 20 21 22 21 19 18 19 19 19 19 19 19 20 20 19 17 15 14 15 14 12 12 12 13 12 11 11 13 13 12 13 14 13 12 10 10 11 11 11 12 13 13 14 13 13 14 14 14 14 14 13
11 12 14 17 19 20 22 23 25 26 26 27 29 30 29 29 27 26 26 25 24 25 25 25 25 25 26 26 25 23 22 22 23 23 22 22 24 23 21 19 19 20 19 19 19 19 19 20 20 19 16 15 15 15 14 13 13 14 13 12 12 13 13 13 13 13 14 13 12 13 12 10 11 12 13 14 14 14 15 16 15 14 14 15 14
13 13 14 16 19 21 23 23 23 25 25 26 28 29 28 28 29 28 27 25 24 25 25 25 25 24 25 27 27 26 25 23 24 24 24 26 27 25 22 21 21 20 18 17 17 18 19 19 19 18 16 15 15 16 15 14 14 15 13 12 13 13 13 14 14 12 12 13 13 13 13 11 11 11 11 12 14 15 17 17 16 16 16 16 16
15 15 15 16 18 21 23 23 24 24 24 25 27 27 28 28 29 29 29 28 26 25 25 25 25 25 26 26 26 26 27 27 26 24 24 26 27 26 24 23 22 21 19 18 17 17 19 19 19 18 17 17 17 16 15 13 14 14 13 14 14 13 12 13 13 13 13 13 12 11 12 12 12 12 11 11 12 15 17 18 18 18 18 17 16
16 15 15 17 19 22 23 23 24 24 25 26 27 27 28 28 29 29 30 30 29 28 27 27 26 26 28 27 25 25 27 28 27 26 26 26 26 26 25 23 21 22 21 20 19 19 19 19 19 19 19 19 18 17 16 15 16 16 15 16 15 14 14 14 13 12 14 14 12 11 12 12 12 12 12 12 13 14 15 16 18 18 18 17 17
19 17 16 17 19 22 22 22 23 24 25 25 27 28 28 28 28 28 29 30 31 30 30 30 29 29 29 29 27 26 26 26 27 28 29 29 28 28 26 24 23 24 23 21 21 21 20 19 19 19 20 20 19 19 20 19 19 17 17 16 15 14 15 14 12 12 13 13 11 10 10 11 13 12 12 13 14 14 14 15 15 15 17 18 18
22 19 16 16 19 20 21 21 21 22 23 24 26 28 28 29 28 28 29 30 31 31 30 31 32 31 32 31 29 27 27 27 28 30 30 30 30 29 28 27 26 25 24 22 21 22 22 20 19 19 20 20 19 19 21 20 19 18 18 17 16 16 16 15 13 12 12 12 12 11 10 10 12 12 11 12 13 13 13 14 14 15 16 19 19
23 20 18 17 18 20 20 19 20 21 23 25 26 28 29 29 29 29 29 29 30 31 31 31 33 33 34 32 28 27 28 29 30 30 30 29 30 29 29 29 27 26 26 24 23 23 22 21 21 21 19 19 18 19 20 20 18 18 18 17 16 17 17 16 15 14 13 14 14 13 12 11 11 11 12 11 10 10 11 13 15 15 16 18 18
22 21 19 16 15 17 18 18 18 20 23 24 25 27 28 29 29 28 27 28 29 29 30 32 33 33 33 32 31 30 31 31 31 31 30 29 28 28 29 29 26 25 25 24 23 23 22 21 21 21 19 19 19 19 19 19 19 18 18 18 17 16 16 17 17 15 14 14 13 12 12 11 10 10 10 10 9 10 11 12 13 12 14 16 16
22 21 18 14 11 12 14 15 15 17 20 21 22 23 25 27 29 28 27 28 27 27 29 32 33 32 31 31 31 32 32 32 33 32 30 29 29 29 29 29 27 24 23 22 22 22 22 21 21 19 19 19 19 18 18 18 19 20 20 20 18 16 16 16 16 15 13 12 11 11 11 11 10 10 9 9 9 10 10 10 10 11 13 14 14
23 22 17 12 11 11 12 13 14 14 17 19 20 21 23 24 26 27 28 28 28 29 31 32 32 30 28 28 28 30 31 32 32 31 29 29 31 31 30 30 28 26 23 21 20 21 21 20 20 19 19 19 18 16 15 17 19 20 21 21 19 18 17 17 16 14 13 12 12 11 11 11 11 10 9 9 9 8 9 10 10 10 12 13 13
23 21 17 12 11 11 11 12 12 12 15 18 19 20 21 22 23 23 24 27 30 32 33 32 30 28 27 27 27 29 30 30 30 29 27 27 28 29 30 30 29 27 24 21 20 21 21 19 19 19 19 18 17 15 15 16 18 19 19 19 19 18 17 17 16 14 13 13 13 11 10 10 11 9 8 8 9 8 9 10 9 10 11 13 13
22 20 16 12 10 11 11 12 11 11 13 16 17 17 18 19 19 19 21 24 28 31 31 30 28 27 26 25 26 27 26 26 27 27 27 27 27 28 30 29 29 28 25 23 23 23 22 20 18 18 18 17 16 15 16 17 17 16 16 16 16 16 15 15 15 14 14 13 13 11 10 11 11 9 9 9 10 9 10 10 10 11 12 12 12
22 19 14 10 9 10 10 11 11 11 12 13 15 16 17 17 17 18 20 20 22 25 26 26 25 24 23 23 24 24 23 23 24 25 26 26 27 29 30 29 29 29 26 25 25 25 23 20 17 17 18 17 15 15 16 16 16 14 14 14 14 13 13 13 13 13 13 13 13 12 12 12 11 10 9 9 8 8 8 8 8 10 10 10 11
20 19 15 10 9 9 10 11 10 10 11 11 13 14 15 16 16 16 17 17 18 20 21 21 20 20 19 20 21 22 22 22 23 24 24 25 26 28 28 28 28 28 26 25 25 23 21 20 19 19 17 16 15 15 16 16 14 13 13 13 12 12 12 12 11 12 12 13 13 12 12 12 11 10 9 7 7 7 9 9 10 10 11 12 11
19 18 16 12 11 10 10 11 10 10 10 10 11 12 13 13 12 13 14 14 15 16 16 17 18 17 17 18 19 20 21 21 21 22 24 25 26 27 27 28 28 25 23 23 22 20 19 20 21 19 16 15 15 15 15 15 15 14 13 12 11 11 11 10 10 11 11 11 11 12 12 12 11 12 12 12 12 13 15 16 15 13 14 15 13
19 18 17 15 13 11 11 10 10 10 10 10 11 11 12 12 12 12 13 13 13 13 14 15 17 17 17 18 17 16 17 18 18 20 22 24 26 26 26 26 24 20 20 21 20 18 18 19 19 18 16 15 15 14 14 15 14 14 13 12 11 10 10 10 10 10 10 11 11 11 12 12 14 15 15 15 16 17 18 18 18 17 17 17 15
20 19 19 16 14 12 12 11 10 10 11 10 10 11 12 12 11 12 12 12 12 13 13 14 16 17 16 16 15 14 15 15 14 15 17 21 24 23 22 21 19 17 18 19 18 18 19 19 18 17 16 15 14 13 14 15 14 14 15 15 13 11 11 12 12 11 10 10 10 10 11 13 14 14 15 16 16 15 15 15 15 17 18 17 16
20 20 19 18 15 13 12 12 11 11 12 11 11 11 12 12 11 11 10 10 11 13 13 14 16 15 14 13 12 12 12 13 11 10 10 12 15 17 17 16 16 16 17 19 19 19 18 18 17 16 15 14 13 13 14 15 15 16 16 16 14 12 13 14 14 14 12 10 10 10 10 13 15 15 16 15 14 12 11 12 12 13 14 15 15
20 19 19 19 17 14 13 13 12 12 13 12 11 11 10 11 10 9 9 9 10 12 14 14 14 13 11 10 10 10 10 10 9 8 9 10 12 14 14 14 15 16 18 20 19 18 17 17 17 15 14 13 13 14 15 16 17 18 18 17 16 15 14 14 16 16 14 13 12 10 11 15 15 12 10 9 9 9 10 11 11 11 11 12 12
20 19 19 20 18 16 15 15 14 13 12 11 10 9 9 10 10 8 8 8 9 11 12 12 12 10 9 10 9 8 8 8 8 10 12 13 13 14 15 15 15 16 18 18 17 16 16 16 16 14 14 14 14 15 16 17 19 21 22 22 21 19 17 16 17 16 14 12 11 10 12 14 11 7 6 7 9 11 12 11 11 11 10 10 11
20 20 19 19 19 19 18 16 14 14 13 12 11 9 9 9 9 8 7 6 7 10 11 11 11 9 9 9 7 6 6 6 6 9 11 12 13 14 15 16 15 15 15 15 16 16 15 15 14 13 14 15 16 16 18 19 20 22 23 25 24 22 20 18 18 17 14 11 11 12 13 12 8 7 9 12 13 14 15 14 13 12 11 11 12
19 20 19 19 19 21 20 17 14 13 13 13 11 9 9 8 7 7 7 5 6 9 11 11 10 8 8 8 6 5 5 5 5 6 8 9 11 13 15 15 14 13 14 15 15 15 14 13 13 14 15 16 17 20 21 22 21 19 19 21 22 21 19 17 17 17 15 14 15 14 12 10 10 11 13 14 15 14 13 12 12 11 10 10 11
18 19 20 20 19 20 20 18 15 13 12 12 11 9 8 8 7 7 7 6 6 9 11 11 10 8 8 8 7 6 7 7 7 7 8 9 10 12 15 15 14 14 14 14 14 13 14 14 15 16 16 17 19 20 20 19 17 15 15 16 17 17 15 13 13 12 11 11 11 10 9 10 12 12 13 13 13 12 11 10 10 10 8 8 8
18 18 19 19 18 19 21 19 16 13 11 11 11 9 8 8 8 8 8 9 9 9 11 12 10 8 8 9 9 8 8 9 10 11 11 11 12 14 15 16 16 16 16 17 17 17 17 18 19 19 19 19 19 17 15 14 12 11 11 12 12 12 11 11 13 14 11 8 7 8 10 12 13 12 12 12 12 12 12 10 9 8 7 7 7
19 19 19 18 17 19 20 20 18 15 12 11 11 10 9 9 10 11 11 11 10 8 11 13 12 11 10 9 8 7 7 8 9 11 12 13 14 16 17 17 17 17 18 18 18 18 18 18 19 19 18 17 14 12 11 10 9 8 8 8 9 10 10 10 12 14 14 11 9 9 11 12 11 12 13 13 11 10 9 8 6 6 7 7 6
20 21 21 20 19 18 18 18 18 16 13 12 12 12 10 10 11 12 12 13 11 10 11 13 14 13 12 11 10 7 6 8 8 8 9 11 13 15 16 16 17 17 17 16 16 16 16 15 15 15 13 12 11 10 8 7 8 8 7 7 9 9 8 9 10 12 15 14 11 11 12 11 9 9 11 11 9 7 7 7 7 7 8 8 7
20 21 22 21 20 18 15 14 16 17 15 13 13 13 11 11 12 13 14 12 10 10 11 12 13 13 11 12 13 10 7 6 7 6 6 7 10 13 14 14 14 14 13 12 11 12 13 12 11 12 11 10 9 9 7 6 7 7 6 8 10 8 6 5 6 10 13 14 12 11 11 10 8 6 6 7 8 8 9 9 10 9 9 9 8
20 21 21 20 20 19 16 15 16 17 16 15 15 14 12 12 13 13 12 10 9 9 11 11 11 11 10 10 10 9 9 8 7 7 6 5 7 10 11 10 9 9 12 12 8 7 9 9 8 7 7 7 7 7 7 6 6 7 7 8 9 7 6 4 4 5 7 10 12 11 9 7 7 5 4 4 6 7 9 10 10 10 10 8 7
20 20 19 19 20 20 19 19 18 16 15 15 16 16 13 12 14 14 11 10 11 12 13 13 12 12 12 11 8 8 10 11 8 6 6 7 8 8 10 10 7 7 12 12 9 6 5 5 4 3 4 5 5 6 6 6 5 6 6 6 9 10 9 7 5 6 7 7 9 11 8 7 7 5 4 5 6 6 7 7 7 8 8 8 8
21 19 18 20 20 20 20 21 19 17 15 15 15 15 14 12 14 14 13 13 14 13 14 15 14 14 15 15 12 10 10 10 8 7 6 7 9 8 8 10 9 8 9 11 11 10 6 5 6 7 7 7 8 8 8 8 7 9 11 10 8 8 10 10 10 10 9 6 4 5 6 7 7 6 7 8 8 7 7 7 5 4 4 5 6
22 19 18 19 21 20 20 19 18 17 16 15 14 14 15 14 13 12 12 14 16 16 15 16 16 15 15 16 16 14 12 10 10 9 8 8 9 8 7 8 10 10 10 10 12 12 9 8 8 9 10 10 11 11 11 12 11 11 13 14 11 7 6 10 11 11 9 6 5 5 4 5 7 7 8 9 9 8 9 8 6 3 3 4 5
21 20 18 19 20 20 20 18 16 16 16 15 15 14 15 15 14 12 11 12 14 15 15 15 16 15 15 15 17 18 16 13 12 11 10 10 8 7 6 7 9 11 11 11 12 13 11 9 9 10 10 11 11 11 12 13 14 12 10 11 12 11 8 8 10 10 9 9 10 9 7 7 8 9 9 9 9 8 8 8 7 6 6 6 5
19 20 19 18 17 18 19 18 16 16 15 15 16 16 15 14 13 12 11 11 11 12 12 11 11 12 13 14 15 16 15 14 13 12 11 10 9 7 7 7 8 10 10 10 11 11 11 9 8 9 10 10 10 11 11 10 12 12 10 8 9 12 12 11 11 11 10 9 12 11 10 10 10 10 10 10 9 7 6 6 8 10 10 9 7
17 18 19 18 17 16 17 18 17 15 14 13 13 15 15 14 13 11 11 11 11 10 9 8 6 6 9 10 10 10 10 10 11 10 10 10 10 9 9 9 7 5 4 4 5 7 8 9 8 7 9 10 10 11 11 9 9 11 12 10 9 10 11 10 11 12 10 9 11 11 10 11 13 12 11 10 9 8 8 8 10 12 11 9 7
16 16 17 17 17 17 17 17 16 15 14 14 12 12 13 14 13 11 10 10 9 5 5 5 4 3 5 7 7 6 6 6 7 9 10 11 10 10 10 8 6 4 1 2 2 3 4 7 9 8 7 9 10 10 10 10 10 10 12 12 11 11 10 10 11 12 10 8 11 11 11 12 14 14 12 11 11 11 12 11 11 11 12 11 10
16 16 16 15 16 17 18 18 17 15 15 14 12 11 11 11 11 10 8 7 7 4 1 2 3 2 3 4 5 5 5 4 6 8 10 10 10 10 9 7 5 6 5 4 6 8 7 3 4 6 6 6 8 9 8 9 10 10 12 13 13 14 14 13 13 12 11 9 11 12 12 13 14 14 13 13 13 13 13 12 12 12 14 15 14
16 16 16 15 15 17 18 19 19 17 16 15 13 11 10 9 8 7 6 7 9 9 6 5 6 5 4 3 3 4 5 4 5 6 7 7 7 7 7 6 6 7 9 8 7 9 9 7 4 3 5 6 7 7 7 7 8 8 10 11 12 13 14 15 15 15 15 14 13 12 11 12 13 14 13 13 13 14 13 13 13 13 13 15 16
16 17 17 16 16 17 17 17 16 15 16 15 13 11 10 9 6 6 6 8 10 9 8 9 10 10 9 7 5 4 5 4 4 4 4 4 4 4 5 5 5 6 9 9 8 6 8 9 6 5 6 7 7 7 7 8 8 8 9 10 11 11 12 13 14 15 16 16 14 13 13 13 13 14 14 14 14 14 14 14 14 13 13 14 15
15 17 17 17 16 16 16 15 13 12 13 13 11 8 7 7 6 6 7 8 7 6 7 9 9 10 11 9 7 5 5 4 3 4 4 4 3 2 3 4 4 5 7 8 8 6 8 9 8 7 7 8 7 6 7 7 6 7 8 9 11 12 12 12 12 12 13 13 13 13 14 14 13 14 15 15 14 14 14 14 14 14 13 14 14
14 15 16 16 15 14 14 14 13 11 11 11 8 5 3 4 5 6 7 9 8 8 9 11 10 10 10 9 7 7 7 6 5 5 5 4 4 4 3 3 4 5 5 6 6 7 10 11 10 9 9 9 8 7 7 7 6 6 6 7 9 12 13 13 13 12 12 13 13 13 13 13 13 13 14 14 14 14 14 14 14 14 14 14 14
13 14 15 15 14 14 14 13 12 12 10 8 4 2 1 2 4 4 6 8 9 10 10 10 10 10 10 9 8 8 7 7 6 7 8 7 7 6 6 5 5 6 6 7 9 12 13 13 12 11 11 11 11 12 11 10 9 10 10 8 8 10 13 14 14 15 14 13 14 15 15 14 13 14 14 14 14 15 14 14 14 14 14 14 14
12 12 12 13 14 14 13 12 10 9 8 5 1 1 1 1 2 3 3 5 7 8 9 10 10 10 9 9 8 7 7 6 6 6 8 8 8 8 9 8 8 8 8 8 10 12 13 13 13 12 12 13 13 14 13 12 12 13 13 11 10 11 12 14 15 16 16 14 14 14 15 14 14 15 15 15 14 14 15 15 15 15 15 14 14
11 10 10 11 12 12 11 11 10 8 7 6 4 2 1 1 1 3 3 3 4 6 8 10 11 10 8 7 7 6 6 7 7 7 8 9 8 9 9 9 8 9 9 8 8 9 10 9 9 10 12 14 14 14 13 13 13 13 14 13 12 12 14 14 14 14 14 15 15 14 14 14 14 16 16 15 15 15 15 15 15 16 15 15 15
10 9 9 8 8 9 9 9 8 7 7 7 7 5 2 1 0 3 4 4 4 5 6 8 9 9 7 6 5 5 4 5 6 7 7 6 6 7 8 8 8 7 6 6 6 7 6 6 6 7 10 11 11 10 10 10 11 12 13 13 13 14 17 19 18 15 14 13 14 15 15 14 14 14 14 14 15 15 15 15 15 15 16 16 14
9 9 8 6 6 7 7 7 7 6 5 5 5 5 4 1 0 2 4 4 3 3 3 3 4 4 4 3 3 4 4 3 3 5 6 6 7 8 9 8 6 5 5 6 8 8 8 8 8 8 8 8 8 8 8 9 10 11 12 12 12 14 17 19 18 17 15 13 12 14 15 16 15 14 13 13 14 16 16 15 12 10 11 14 14
10 9 8 6 6 7 7 7 6 5 4 2 3 3 3 2 2 2 3 2 1 1 2 2 2 0 2 3 4 5 4 3 1 1 3 5 7 9 8 6 6 7 7 8 9 8 10 11 11 10 9 9 9 9 10 11 12 13 13 12 13 15 16 16 15 15 15 15 15 15 15 14 13 12 13 14 15 16 17 15 12 9 9 11 13
7 7 8 8 7 7 7 7 6 4 3 2 2 2 3 4 5 6 5 2 1 2 1 2 2 2 2 2 2 4 5 5 4 4 4 3 5 6 6 4 5 6 7 7 8 9 11 12 13 12 12 13 13 12 12 13 13 13 14 14 14 15 15 16 15 15 16 17 19 18 17 15 13 12 13 15 16 16 16 17 17 16 15 16 17
2 3 5 7 7 6 6 7 6 3 1 1 1 1 3 5 5 4 3 2 1 3 4 3 1 3 5 7 7 7 6 3 2 4 4 3 3 4 5 5 7 9 9 9 9 10 11 12 12 12 11 12 12 12 12 12 13 14 15 15 15 16 17 17 17 17 17 18 19 20 19 17 16 14 13 15 16 15 15 16 16 16 17 18 18
4 2 1 3 5 5 5 5 5 5 3 1 1 1 2 3 2 1 2 2 2 2 3 3 3 2 1 3 5 5 3 3 5 7 7 8 8 8 8 8 9 9 9 8 8 9 10 12 12 12 12 12 13 14 14 14 15 16 15 14 14 14 15 16 16 16 16 17 18 19 18 16 16 16 15 14 14 13 13 14 15 16 18 19 20
Wind_Direction
264 257 255 258 262 259 252 247 242 235 226 220 218 219 224 224 221 223 227 224 214 212 221 227 228 229 231 234 232 228 231 234 236 244 249 247 247 250 252 253 255 255 256 261 268 273 275 273 270 270 269 266 267 265 261 263 264 259 254 254 259 263 264 268 271 271 267 257 257 263 261 256 254 254 251 242 241 248 245 240 239 237 243 256 263
269 263 259 259 262 262 258 252 248 243 232 225 223 222 222 223 222 224 225 221 214 214 221 225 228 230 230 233 232 231 233 233 232 237 244 248 249 248 246 247 253 258 261 267 272 274 273 271 270 271 268 262 263 266 263 259 263 263 255 249 254 263 270 272 270 271 269 261 254 256 253 254 260 261 257 249 242 245 250 249 246 243 247 254 260
271 267 263 262 260 256 255 253 253 251 241 232 230 227 224 223 223 224 224 221 218 220 222 224 228 231 231 230 227 228 233 235 234 232 233 239 243 244 245 246 253 259 264 270 274 274 273 271 269 269 265 259 259 263 263 259 261 263 258 257 262 267 268 265 260 262 266 265 262 261 261 261 263 264 263 255 247 245 249 248 246 250 257 259 260
271 265 262 264 262 255 252 251 252 253 247 240 237 233 229 228 228 227 226 224 223 224 226 226 227 231 235 234 230 227 227 230 235 233 228 231 238 242 242 243 249 255 261 267 271 275 275 272 270 268 263 258 257 261 264 265 261 256 258 265 263 262 265 266 268 272 274 274 270 266 267 268 267 266 264 260 252 246 244 245 249 255 259 258 258
277 271 265 265 263 259 257 251 246 247 247 246 246 241 237 234 232 231 230 228 227 228 230 230 229 231 234 236 235 232 228 227 230 231 227 230 237 240 238 238 244 250 252 252 259 266 267 268 271 270 263 258 258 261 263 265 263 256 257 265 265 266 275 277 279 281 280 278 277 274 272 271 270 266 264 261 253 246 247 253 258 258 256 257 260
293 284 277 273 268 263 260 254 247 245 245 246 247 246 243 240 236 234 232 233 232 232 234 236 235 234 233 233 233 233 232 230 230 230 228 229 234 239 240 240 242 247 251 253 258 261 258 259 266 269 267 264 264 267 266 263 263 258 256 261 266 273 278 276 276 278 276 274 275 276 277 277 277 272 267 263 255 250 252 256 258 257 259 262 264
318 305 293 286 282 273 265 260 256 253 249 248 248 248 246 244 241 239 237 238 238 237 239 241 239 236 235 234 232 232 234 233 231 231 231 231 234 240 244 243 244 250 255 258 261 261 255 254 257 262 268 270 270 273 273 268 264 259 257 261 266 272 274 274 276 277 275 275 275 274 274 277 280 277 272 268 262 255 252 252 258 264 266 266 266
328 320 308 298 294 289 276 266 263 262 258 256 255 252 249 246 244 243 243 242 241 241 241 241 240 237 237 238 235 231 231 232 232 233 234 236 238 242 246 247 249 253 255 256 257 257 256 257 257 259 264 269 272 274 271 267 262 259 260 262 262 265 268 272 276 276 274 277 280 278 272 273 276 274 270 269 268 263 255 254 262 269 270 269 268
330 325 317 303 297 300 294 280 274 272 267 262 261 259 257 253 247 244 244 244 244 243 242 241 241 239 238 237 234 230 232 234 233 235 238 239 242 247 249 251 252 252 253 256 257 256 256 258 259 259 259 262 268 270 267 265 262 260 262 263 262 263 264 264 265 267 269 273 276 277 275 274 275 272 268 268 272 270 261 257 260 264 268 269 268
336 330 322 311 300 300 300 291 283 280 276 270 268 267 267 263 254 248 247 247 246 245 243 243 243 241 239 238 234 232 233 234 235 236 239 241 243 247 249 251 252 251 251 253 253 252 254 257 258 259 259 260 261 260 258 258 260 262 263 264 265 263 260 257 257 261 267 269 267 267 266 264 266 270 269 265 265 266 263 260 259 258 263 267 267
339 335 325 317 306 294 291 291 288 284 277 272 269 268 268 266 259 254 251 249 247 244 244 247 247 245 244 240 236 233 231 233 237 238 238 241 243 246 247 249 250 249 248 249 249 249 251 254 256 258 261 262 257 253 254 256 260 265 266 265 264 260 256 254 257 261 263 260 258 256 256 256 259 264 265 262 262 263 263 262 258 253 255 262 267
332 331 322 309 301 295 293 295 293 283 270 266 267 268 267 264 258 253 253 252 250 246 244 246 246 246 246 242 240 238 235 237 241 239 237 240 243 244 246 247 247 247 245 245 246 246 247 250 253 257 261 260 256 256 260 263 263 262 260 258 255 253 252 253 257 259 257 254 255 256 258 259 257 255 260 267 268 265 264 262 258 254 254 259 267
331 333 326 311 300 299 297 291 286 278 266 263 266 265 262 260 257 254 256 258 254 247 242 243 244 246 247 245 243 243 241 241 242 240 238 239 240 241 243 243 244 244 243 242 243 244 245 248 251 256 258 255 254 256 257 259 260 256 252 250 249 250 252 254 257 258 254 253 255 255 257 259 258 259 266 272 270 268 269 268 266 264 262 264 268
336 337 330 317 306 301 294 284 279 275 268 266 268 266 261 260 258 254 256 258 254 247 243 243 245 246 246 244 242 243 243 241 241 240 239 239 238 237 238 239 240 240 240 241 243 243 245 248 251 251 248 246 249 253 252 254 256 253 248 246 247 250 253 256 257 256 256 258 259 257 256 259 263 265 266 268 270 272 273 272 270 266 263 266 269
335 338 334 326 315 303 292 285 279 276 274 268 264 262 260 257 255 253 254 254 253 251 248 247 247 246 242 239 239 242 242 243 246 245 241 239 237 235 236 237 238 238 239 240 241 241 244 247 246 242 244 248 251 255 256 254 252 250 246 244 245 249 252 253 252 252 255 259 259 257 255 257 261 263 265 270 271 267 264 267 269 267 267 271 274
331 334 333 325 314 301 290 287 279 272 273 267 259 257 257 256 256 257 256 251 247 250 254 254 252 249 243 240 241 245 246 247 251 251 246 242 240 237 235 234 236 236 236 235 234 235 237 239 240 241 245 248 246 247 249 248 245 245 244 243 244 248 251 251 250 251 252 252 253 254 253 253 255 258 263 263 255 250 255 261 265 272 278 281 280
325 328 324 315 310 303 291 286 281 272 269 267 262 258 257 258 259 260 258 252 249 252 256 255 255 255 253 248 245 248 252 252 252 253 249 243 240 238 233 231 231 229 226 226 227 229 232 236 240 243 241 239 238 239 240 240 241 242 242 241 243 248 254 255 257 260 256 250 250 250 249 253 259 263 265 261 255 256 261 263 263 266 272 274 274
323 324 323 316 309 304 293 286 282 274 269 269 268 263 261 264 266 266 263 257 255 258 259 258 259 262 262 257 251 252 257 258 256 254 248 238 235 235 230 225 223 220 218 220 223 229 234 236 239 240 237 239 242 240 238 239 238 236 236 236 237 243 253 260 267 268 255 245 247 251 254 257 260 261 263 264 266 267 268 267 264 259 258 262 264
323 322 322 315 304 298 292 286 280 270 266 270 270 267 267 268 267 269 267 263 262 263 262 263 264 264 265 265 261 257 256 259 261 259 250 237 227 220 214 212 213 215 216 219 222 228 231 232 234 235 235 237 238 237 239 241 236 231 232 233 232 238 251 260 267 264 248 237 241 247 251 255 258 266 276 280 279 277 273 268 260 251 248 250 253
320 317 315 312 305 298 290 286 280 271 267 269 270 270 271 269 269 272 268 265 268 265 261 261 264 265 266 268 266 258 255 260 264 257 243 224 205 196 196 203 212 215 215 218 223 224 224 227 230 230 230 230 231 236 240 239 236 236 236 235 234 240 249 255 258 258 252 243 239 242 255 266 272 282 289 286 280 277 270 262 255 248 247 246 244
317 313 311 311 310 302 291 286 282 272 267 268 271 275 273 266 268 275 272 267 268 266 264 264 266 266 264 263 265 260 254 256 254 235 216 201 189 191 201 209 214 217 218 218 220 219 220 226 229 229 232 235 235 239 243 244 245 246 244 242 242 244 248 251 254 253 247 243 245 255 274 282 285 294 301 287 274 272 268 262 256 252 249 248 245
317 316 313 313 313 306 293 289 285 276 268 266 269 274 271 264 263 271 276 275 270 264 262 264 264 260 256 260 264 261 254 253 243 227 219 216 212 211 213 215 217 220 219 216 213 213 217 223 226 227 233 239 242 246 251 254 253 251 250 249 248 249 250 248 250 250 246 249 255 252 259 273 284 300 298 269 253 258 264 266 264 257 252 254 256
315 316 317 316 316 311 301 293 287 277 269 265 269 272 270 265 260 258 261 265 264 260 256 256 257 251 247 253 259 253 252 256 244 229 224 223 221 217 214 214 215 215 213 209 207 207 211 217 223 229 235 240 246 251 255 257 259 258 255 250 248 250 249 241 239 241 240 241 243 240 249 263 262 245 246 243 243 253 262 267 270 266 261 260 259
310 314 316 316 315 313 306 297 287 281 274 269 269 270 267 260 254 249 245 240 255 262 256 250 248 240 237 246 249 241 245 254 249 234 221 214 213 209 207 210 209 203 201 204 205 207 213 221 231 239 245 250 256 260 262 264 265 261 251 242 239 241 242 236 234 240 241 239 242 249 256 250 227 224 238 246 249 255 261 265 267 267 267 265 260
306 311 314 315 315 313 308 299 288 284 278 269 264 262 258 250 243 245 245 237 244 253 248 243 241 233 233 245 251 242 234 235 239 239 226 210 205 204 205 208 206 201 203 211 216 218 226 235 242 248 254 261 266 267 267 264 259 247 234 231 231 232 233 227 224 233 243 243 240 240 234 226 228 235 243 249 254 259 264 267 262 259 266 274 272
301 305 310 313 313 312 310 303 295 288 280 270 261 255 253 244 230 226 230 233 236 237 235 237 240 237 234 245 262 267 256 241 238 241 239 226 214 210 208 209 209 208 212 218 223 228 235 242 248 253 259 266 267 262 253 245 237 226 219 218 219 216 212 208 210 219 226 216 201 210 223 231 240 245 248 253 259 260 262 266 263 263 276 282 277
296 298 304 309 308 307 308 307 303 295 284 271 259 252 248 240 229 222 221 222 221 225 233 237 238 240 241 247 262 282 292 276 255 244 241 235 225 218 216 215 216 217 220 224 228 233 239 244 248 252 254 255 249 235 228 224 211 197 196 198 196 195 198 209 219 220 211 194 188 216 235 240 246 254 258 260 259 256 258 264 270 281 289 286 278
296 296 302 307 306 307 311 312 307 301 290 274 262 256 249 237 232 230 227 221 213 215 230 236 237 239 243 247 253 265 294 297 282 264 250 239 231 226 222 222 225 227 229 233 235 236 237 238 238 235 230 225 214 200 196 195 183 177 183 184 182 187 206 229 229 210 195 187 191 216 234 244 257 263 257 251 248 250 252 255 265 277 276 271 274
300 298 301 306 306 305 306 305 305 304 296 278 263 256 248 234 226 225 227 227 217 211 220 232 238 240 242 250 254 255 270 300 314 311 287 252 241 239 234 234 242 240 230 227 229 229 226 221 215 211 205 202 199 187 175 170 170 171 170 167 171 187 222 237 210 187 185 191 202 217 230 243 259 260 243 236 241 247 251 257 266 271 265 260 264
300 301 301 303 305 305 301 297 301 306 302 289 273 262 250 236 226 223 224 229 229 225 223 228 237 238 237 249 253 243 247 276 308 322 318 302 278 256 236 232 241 224 203 203 207 204 203 199 197 198 195 192 190 179 170 169 166 161 161 161 169 199 246 251 194 191 205 209 213 218 223 230 240 244 239 239 245 254 263 266 264 259 255 254 256
298 300 301 301 305 310 309 303 302 306 305 297 282 268 255 240 232 230 231 233 236 235 229 226 231 232 234 250 260 240 234 250 271 291 303 315 311 276 230 216 215 193 188 193 185 166 172 183 180 190 198 192 188 183 184 191 183 175 185 183 175 194 226 234 207 224 253 238 211 208 210 215 224 229 234 243 248 253 261 268 267 263 257 250 244
295 297 299 299 303 311 313 309 307 309 306 298 284 270 259 249 239 234 233 236 236 235 231 228 229 231 236 247 259 256 242 241 251 265 276 297 309 288 238 217 213 202 194 187 172 161 173 197 199 208 215 210 207 207 206 212 210 199 204 215 207 195 202 202 198 215 243 253 224 210 203 202 212 224 228 234 244 250 253 262 276 287 272 248 241
296 295 296 296 299 308 312 311 311 312 308 302 291 270 254 250 246 237 235 238 237 235 235 234 233 234 239 246 252 257 255 245 242 251 262 276 290 282 250 227 220 214 208 194 177 171 185 211 214 214 217 216 214 208 203 210 218 207 199 214 235 235 195 184 193 210 226 237 253 273 256 210 216 229 224 228 245 251 242 243 257 275 273 270 274
296 295 296 296 297 303 309 310 310 311 309 306 301 283 261 254 250 240 233 238 241 240 240 242 243 243 246 249 251 256 259 252 244 249 257 260 260 252 236 227 222 218 214 206 190 179 183 206 224 224 222 222 222 217 208 207 213 210 198 204 225 239 230 207 205 221 229 220 224 244 256 247 251 251 234 234 253 253 229 227 244 257 251 253 263
293 293 297 300 300 303 309 310 307 305 304 306 308 300 283 266 256 245 232 229 238 244 243 244 250 251 252 256 258 258 256 248 243 245 247 240 225 210 205 207 208 209 211 209 202 190 180 186 211 230 232 229 227 230 233 224 210 209 211 209 213 225 231 225 225 243 252 226 209 218 228 230 241 250 247 246 254 253 231 225 236 242 242 244 248
292 293 296 298 298 302 308 310 308 303 300 302 309 305 288 266 252 251 242 229 230 236 231 227 236 247 249 255 261 259 248 239 235 233 227 217 206 195 192 191 187 191 206 208 208 207 195 182 188 220 240 240 230 227 236 241 227 215 215 215 213 224 236 237 237 248 251 219 203 215 226 222 223 232 242 250 251 244 238 235 233 234 237 239 238
291 290 292 295 297 301 305 310 313 312 308 305 309 312 300 275 255 253 251 237 228 220 200 195 205 236 248 251 257 259 248 236 232 226 216 210 207 203 201 196 179 169 217 311 326 296 241 201 193 205 230 244 241 231 225 230 236 230 220 214 210 216 230 241 245 253 256 228 207 212 221 226 228 230 232 239 240 235 234 232 227 231 236 235 232
286 284 285 291 296 300 304 307 309 310 312 313 312 313 307 286 263 258 261 245 232 228 157 142 163 208 247 246 248 256 254 241 231 225 217 214 213 213 217 216 190 172 188 234 277 299 308 288 209 208 222 235 243 243 234 228 233 237 234 228 219 213 215 221 231 245 255 242 221 216 218 225 235 238 235 233 231 232 234 232 225 229 239 242 243
291 286 284 286 294 301 307 309 307 306 308 314 317 317 314 301 279 277 286 262 242 241 246 238 224 227 239 242 241 246 245 238 232 227 224 224 225 226 232 232 212 191 188 196 224 261 282 298 298 256 242 240 242 246 246 240 240 245 247 245 240 233 228 225 225 231 238 238 234 231 227 227 236 244 244 236 228 227 233 236 233 235 243 249 256
296 292 289 289 297 306 309 308 308 307 305 307 314 321 322 314 291 270 264 256 246 240 242 242 237 238 248 261 267 250 232 232 244 248 240 234 228 228 236 235 224 212 200 185 177 206 244 263 276 264 249 253 256 251 244 238 236 242 248 250 252 254 253 249 243 241 244 245 243 239 236 234 237 243 246 244 239 233 233 237 239 241 245 252 260
297 295 295 295 301 308 309 303 301 302 303 304 309 317 320 308 284 252 238 239 241 245 253 252 241 235 241 252 259 244 218 213 246 268 272 273 263 240 241 245 245 234 212 189 173 184 220 237 247 248 250 262 271 270 269 269 263 258 259 261 265 267 267 265 264 260 256 255 253 249 247 244 239 240 244 248 248 245 242 243 245 247 249 253 257
300 299 298 296 300 309 313 307 300 301 307 307 302 303 306 289 270 250 238 235 234 239 252 257 252 246 247 250 249 239 222 211 217 228 237 256 268 267 263 264 263 258 238 213 215 234 238 236 237 238 238 241 242 241 252 270 276 271 266 269 275 279 279 274 270 267 265 261 258 257 256 253 248 246 247 249 250 252 254 255 255 255 255 257 261
301 301 298 294 296 307 315 314 308 309 314 308 286 254 254 260 253 243 240 241 238 237 243 250 253 254 255 252 246 238 228 221 219 216 216 222 234 243 253 259 257 255 250 237 240 249 251 246 245 245 242 240 237 234 235 240 238 236 238 242 253 270 279 278 272 269 268 266 261 259 260 260 256 253 253 253 254 257 261 262 263 264 265 267 270
305 303 302 301 301 305 312 315 313 311 312 308 283 141 113 265 265 258 244 241 242 241 241 244 248 250 253 252 247 238 233 233 235 234 234 237 240 244 249 250 247 246 248 247 249 256 258 255 254 254 252 250 247 244 246 250 248 246 250 254 253 257 267 275 277 275 271 266 264 265 265 261 255 256 259 261 260 262 265 266 266 269 273 275 275
311 303 299 302 307 308 310 317 318 305 292 294 303 315 40 65 300 276 248 229 237 240 235 235 239 239 241 247 248 240 236 245 253 254 249 247 252 259 263 264 261 259 260 263 263 259 255 256 257 256 254 255 253 249 250 256 260 259 259 261 259 256 257 261 265 266 264 261 262 265 267 265 263 266 266 262 260 265 270 268 266 268 270 271 273
318 312 304 303 306 303 300 309 316 306 287 285 293 296 295 99 22 286 265 245 240 233 225 233 242 239 232 238 246 242 240 253 261 258 245 239 252 270 271 269 267 261 258 267 269 258 249 256 262 258 257 263 267 263 259 260 263 259 255 256 259 258 257 256 254 251 254 261 262 261 262 263 266 268 266 262 265 271 274 273 275 275 269 263 264
329 317 311 309 307 300 294 301 314 319 309 290 282 280 278 264 68 293 280 271 261 231 217 253 278 254 221 215 215 205 200 207 223 226 220 220 236 251 253 258 278 297 301 300 297 287 276 273 269 261 261 268 272 270 266 265 264 259 256 259 260 257 258 262 261 256 255 259 260 257 255 255 258 265 270 267 265 264 265 271 285 288 267 252 251
341 326 314 311 311 310 307 305 306 308 304 275 240 251 267 272 266 263 262 272 293 253 244 324 351 325 187 193 182 163 140 106 75 283 260 263 278 287 292 302 316 316 304 290 281 268 261 262 263 262 262 261 257 254 254 256 258 257 256 258 259 257 258 264 264 258 254 255 256 257 255 251 254 267 273 266 260 259 260 263 270 276 272 267 266
349 347 337 327 321 318 317 316 312 306 294 267 205 198 228 244 247 240 227 200 55 34 15 338 324 324 338 354 60 90 72 49 29 9 354 334 327 337 347 340 310 291 281 275 268 260 257 259 260 260 259 257 255 256 260 263 265 265 264 264 265 265 266 267 265 262 259 257 258 261 260 252 249 259 266 262 260 264 268 268 270 274 278 281 281
318 9 1 351 347 343 336 337 347 3 3 301 253 230 246 256 259 243 204 183 88 36 48 55 349 333 0 23 50 66 62 36 337 330 329 308 295 308 312 300 288 280 274 271 267 264 265 267 267 268 269 270 270 273 277 281 283 282 280 278 275 273 271 271 270 269 267 264 266 273 276 267 257 259 266 270 271 274 277 282 288 292 293 293 291
313 281 326 8 13 11 4 10 29 49 61 63 73 155 239 265 293 11 114 129 121 90 90 113 151 184 45 72 102 117 146 230 258 273 276 268 266 271 271 266 261 257 254 255 257 262 270 278 281 282 283 283 283 284 287 290 292 294 294 295 292 288 285 282 280 279 278 276 278 285 287 278 264 260 264 272 279 285 290 295 301 303 303 302 300
Height
1503 1503 1503 1504 1506 1507 1507 1507 1506 1506 1506 1505 1504 1504 1506 1506 1507 1508 1509 1510 1511 1513 1517 1520 1522 1523 1523 1524 1526 1527 1528 1529 1530 1530 1530 1531 1532 1533 1534 1535 1535 1537 1538 1539 1539 1539 1539 1539 1540 1540 1541 1541 1541 1541 1542 1543 1543 1543 1543 1543 1543 1543 1543 1543 1543 1543 1545 1546 1546 1546 1546 1547 1547 1548 1548 1548 1548 1549 1548 1548 1548 1548 1548 1548 1549
1500 1501 1501 1502 1503 1505 1506 1507 1507 1506 1505 1505 1504 1504 1505 1505 1506 1507 1508 1509 1510 1512 1514 1517 1519 1520 1521 1522 1524 1525 1526 1527 1528 1529 1529 1529 1530 1531 1532 1532 1533 1534 1535 1536 1537 1538 1538 1538 1538 1539 1539 1540 1540 1540 1540 1541 1541 1541 1542 1542 1542 1542 1541 1541 1541 1541 1543 1544 1545 1545 1544 1545 1545 1546 1546 1546 1546 1546 1546 1547 1547 1547 1546 1546 1547
1498 1498 1498 1499 1499 1500 1502 1504 1506 1506 1505 1504 1504 1504 1505 1505 1506 1506 1507 1508 1509 1511 1513 1515 1517 1518 1519 1520 1521 1523 1524 1525 1526 1527 1527 1527 1527 1528 1529 1530 1530 1531 1533 1534 1535 1536 1536 1536 1537 1537 1538 1538 1538 1539 1539 1539 1539 1539 1540 1540 1541 1540 1540 1540 1540 1540 1541 1542 1543 1543 1543 1544 1544 1544 1544 1544 1544 1544 1544 1545 1545 1545 1545 1545 1545
1496 1494 1494 1496 1497 1498 1499 1500 1503 1504 1504 1504 1504 1504 1505 1506 1506 1506 1506 1508 1509 1510 1511 1513 1515 1516 1517 1518 1519 1520 1522 1522 1523 1523 1524 1524 1524 1524 1525 1526 1526 1527 1529 1530 1532 1534 1535 1535 1536 1536 1537 1536 1536 1537 1537 1537 1537 1537 1537 1538 1538 1539 1538 1538 1538 1539 1539 1540 1541 1541 1541 1542 1543 1543 1542 1542 1542 1542 1543 1543 1543 1543 1543 1543 1544
1494 1492 1492 1493 1496 1498 1499 1498 1498 1499 1502 1503 1504 1504 1504 1504 1505 1505 1506 1507 1508 1509 1510 1511 1513 1514 1515 1516 1517 1518 1519 1520 1520 1521 1521 1521 1521 1522 1523 1523 1523 1524 1526 1526 1527 1530 1533 1535 1535 1536 1536 1535 1535 1535 1535 1535 1535 1535 1536 1536 1536 1536 1536 1536 1536 1536 1537 1538 1539 1539 1540 1540 1541 1541 1541 1540 1540 1540 1541 1541 1541 1541 1541 1541 1542
1493 1492 1491 1492 1495 1497 1499 1498 1497 1497 1499 1500 1501 1502 1502 1502 1503 1504 1505 1505 1506 1507 1507 1509 1511 1512 1513 1514 1515 1516 1517 1518 1519 1519 1519 1519 1519 1520 1521 1522 1522 1523 1524 1524 1523 1524 1528 1530 1533 1534 1534 1534 1533 1533 1533 1533 1533 1533 1534 1534 1535 1535 1534 1534 1534 1534 1535 1535 1536 1537 1538 1538 1538 1538 1539 1538 1538 1538 1539 1539 1539 1540 1540 1540 1540
1491 1491 1491 1492 1495 1497 1498 1498 1498 1498 1498 1498 1499 1500 1500 1500 1501 1502 1502 1503 1504 1505 1505 1506 1509 1510 1511 1512 1513 1514 1515 1516 1517 1516 1516 1517 1517 1517 1518 1519 1520 1521 1521 1521 1521 1522 1523 1525 1528 1530 1532 1532 1532 1532 1532 1531 1531 1532 1532 1532 1533 1533 1533 1532 1532 1532 1533 1533 1534 1535 1535 1535 1535 1536 1536 1536 1536 1537 1537 1538 1538 1539 1539 1538 1538
1489 1490 1490 1492 1495 1497 1497 1497 1497 1497 1498 1497 1497 1498 1498 1498 1499 1499 1499 1500 1501 1502 1502 1504 1506 1507 1508 1509 1510 1511 1512 1513 1514 1513 1513 1514 1515 1515 1516 1517 1518 1518 1519 1519 1519 1521 1522 1523 1524 1525 1527 1529 1529 1530 1530 1530 1529 1530 1530 1529 1530 1531 1531 1530 1530 1530 1531 1531 1532 1532 1532 1532 1533 1534 1534 1534 1534 1534 1535 1536 1536 1536 1536 1536 1536
1487 1487 1488 1490 1493 1495 1495 1496 1496 1496 1496 1496 1495 1495 1495 1496 1496 1496 1496 1497 1497 1498 1499 1501 1502 1503 1504 1506 1508 1509 1510 1511 1511 1511 1511 1511 1512 1513 1513 1514 1515 1516 1517 1517 1517 1518 1520 1521 1522 1522 1524 1525 1526 1527 1528 1528 1528 1527 1528 1528 1528 1529 1528 1528 1528 1528 1529 1529 1529 1529 1529 1529 1530 1532 1532 1532 1532 1532 1532 1532 1533 1533 1533 1534 1533
1486 1486 1486 1487 1489 1490 1491 1492 1492 1492 1492 1492 1492 1491 1491 1492 1493 1494 1494 1495 1495 1496 1497 1498 1499 1500 1502 1503 1505 1507 1508 1508 1508 1508 1508 1508 1509 1509 1510 1511 1512 1513 1514 1514 1515 1515 1516 1518 1519 1520 1521 1521 1522 1523 1524 1526 1526 1526 1526 1526 1526 1526 1526 1525 1526 1526 1527 1527 1527 1527 1527 1527 1528 1529 1530 1529 1529 1529 1529 1529 1529 1530 1531 1531 1531
1486 1486 1486 1486 1486 1486 1487 1488 1489 1488 1488 1488 1487 1486 1486 1486 1488 1491 1492 1493 1494 1494 1495 1496 1496 1498 1499 1501 1502 1504 1505 1505 1504 1504 1504 1504 1505 1505 1506 1507 1509 1510 1510 1511 1511 1512 1513 1514 1515 1516 1517 1518 1519 1520 1521 1523 1524 1524 1523 1523 1523 1523 1523 1523 1524 1524 1525 1525 1525 1525 1525 1526 1526 1526 1526 1526 1526 1526 1527 1527 1528 1528 1529 1529 1528
1487 1486 1486 1485 1485 1485 1485 1486 1486 1486 1486 1486 1485 1484 1483 1483 1484 1486 1489 1491 1492 1493 1493 1493 1494 1495 1496 1498 1500 1500 1501 1502 1501 1500 1500 1500 1501 1501 1502 1504 1505 1506 1506 1507 1508 1509 1509 1510 1510 1511 1512 1514 1516 1517 1518 1520 1522 1521 1521 1520 1520 1520 1520 1521 1521 1522 1523 1522 1522 1523 1522 1523 1523 1523 1524 1524 1523 1523 1524 1525 1527 1527 1527 1527 1527
1487 1486 1484 1484 1484 1484 1485 1485 1485 1484 1484 1484 1484 1483 1482 1482 1483 1484 1486 1489 1490 1491 1491 1491 1491 1492 1493 1495 1497 1497 1497 1498 1497 1496 1495 1496 1496 1497 1498 1500 1501 1502 1503 1504 1505 1506 1506 1507 1507 1507 1509 1511 1513 1514 1515 1517 1519 1519 1519 1518 1518 1518 1518 1519 1519 1520 1520 1520 1519 1520 1520 1520 1521 1521 1522 1522 1521 1521 1521 1522 1524 1524 1525 1525 1526
1486 1485 1484 1484 1484 1484 1485 1485 1485 1484 1483 1483 1482 1482 1482 1482 1483 1484 1486 1488 1489 1489 1489 1488 1488 1489 1490 1491 1492 1492 1492 1492 1492 1491 1491 1492 1492 1493 1494 1495 1497 1498 1500 1501 1502 1503 1504 1504 1504 1505 1507 1509 1510 1511 1512 1515 1516 1517 1517 1517 1517 1517 1517 1517 1517 1517 1517 1517 1517 1517 1517 1518 1519 1519 1519 1519 1519 1519 1520 1520 1522 1523 1524 1525 1525
1486 1484 1483 1483 1483 1484 1485 1485 1485 1484 1484 1483 1482 1481 1481 1482 1483 1484 1485 1487 1487 1487 1487 1486 1485 1485 1485 1486 1487 1487 1487 1487 1487 1487 1487 1487 1489 1489 1490 1492 1494 1496 1498 1499 1500 1501 1502 1502 1503 1503 1504 1506 1506 1507 1509 1512 1513 1514 1515 1515 1515 1515 1515 1515 1515 1515 1515 1515 1515 1515 1515 1516 1516 1517 1517 1517 1518 1518 1519 1520 1521 1522 1523 1523 1523
1485 1485 1484 1483 1483 1483 1483 1484 1484 1483 1483 1483 1482 1481 1481 1481 1482 1484 1484 1484 1484 1484 1485 1484 1484 1484 1483 1484 1484 1483 1483 1484 1483 1483 1483 1484 1485 1486 1488 1490 1491 1493 1495 1496 1497 1498 1499 1500 1501 1502 1502 1503 1503 1504 1506 1509 1511 1512 1513 1513 1512 1513 1513 1514 1513 1513 1514 1514 1513 1513 1513 1514 1514 1515 1515 1516 1516 1517 1518 1520 1521 1521 1521 1521 1521
1485 1484 1483 1482 1482 1481 1481 1481 1481 1481 1481 1481 1481 1480 1480 1480 1480 1481 1481 1481 1481 1481 1482 1482 1482 1482 1482 1481 1481 1480 1480 1480 1480 1480 1480 1480 1481 1483 1484 1486 1488 1490 1492 1493 1494 1495 1496 1497 1499 1500 1500 1500 1500 1501 1503 1506 1508 1510 1510 1510 1511 1512 1512 1511 1511 1511 1511 1512 1512 1512 1512 1512 1513 1513 1513 1514 1515 1516 1517 1517 1519 1519 1519 1519 1519
1484 1482 1482 1481 1480 1479 1478 1478 1477 1477 1478 1478 1479 1478 1478 1478 1478 1477 1478 1478 1479 1479 1479 1480 1480 1480 1479 1478 1478 1477 1476 1476 1476 1476 1476 1476 1478 1479 1481 1483 1486 1488 1489 1490 1491 1492 1493 1494 1496 1497 1497 1497 1497 1498 1500 1503 1505 1507 1508 1509 1509 1510 1509 1509 1509 1509 1509 1510 1510 1510 1510 1511 1511 1511 1512 1512 1513 1513 1513 1514 1515 1516 1516 1516 1517
1482 1480 1480 1480 1479 1476 1475 1474 1474 1474 1475 1475 1476 1476 1476 1476 1475 1475 1475 1476 1477 1477 1477 1478 1478 1477 1477 1476 1475 1474 1474 1474 1473 1473 1472 1473 1474 1476 1478 1481 1484 1486 1486 1488 1489 1489 1490 1492 1493 1494 1494 1494 1495 1496 1498 1500 1503 1504 1506 1506 1507 1507 1507 1506 1507 1507 1508 1508 1508 1508 1509 1509 1509 1509 1509 1510 1510 1510 1510 1511 1512 1512 1513 1513 1514
1481 1479 1479 1478 1476 1474 1473 1472 1472 1472 1472 1472 1473 1473 1473 1473 1473 1473 1473 1474 1475 1476 1476 1476 1476 1475 1475 1474 1473 1472 1472 1472 1471 1471 1471 1471 1473 1474 1477 1479 1481 1483 1484 1485 1486 1487 1488 1489 1490 1492 1492 1492 1493 1495 1497 1499 1501 1502 1503 1504 1504 1505 1505 1505 1505 1505 1506 1506 1506 1506 1507 1507 1507 1508 1507 1507 1507 1508 1508 1508 1509 1509 1510 1511 1511
1479 1478 1477 1475 1474 1472 1470 1470 1469 1469 1469 1470 1470 1470 1470 1470 1470 1470 1470 1471 1472 1475 1476 1475 1474 1473 1473 1473 1472 1471 1471 1471 1471 1471 1471 1472 1473 1474 1476 1477 1479 1481 1482 1483 1484 1485 1486 1487 1488 1489 1490 1491 1492 1493 1495 1497 1499 1500 1501 1501 1502 1503 1503 1503 1503 1503 1504 1504 1505 1505 1506 1506 1506 1506 1506 1506 1505 1506 1506 1506 1507 1508 1508 1509 1509
1477 1476 1475 1474 1472 1470 1469 1468 1467 1467 1467 1467 1467 1468 1468 1469 1468 1468 1467 1467 1470 1473 1475 1474 1473 1472 1472 1471 1470 1470 1470 1470 1471 1471 1471 1472 1473 1473 1475 1476 1478 1479 1480 1482 1483 1484 1484 1485 1487 1488 1488 1489 1490 1492 1493 1495 1497 1498 1498 1499 1499 1500 1501 1502 1501 1502 1502 1503 1504 1504 1505 1505 1505 1505 1505 1505 1504 1504 1505 1505 1506 1506 1507 1507 1507
1476 1474 1473 1472 1470 1468 1467 1466 1465 1465 1464 1464 1465 1465 1466 1466 1466 1466 1465 1465 1467 1472 1474 1473 1472 1471 1471 1470 1469 1469 1469 1470 1470 1471 1471 1472 1472 1473 1474 1475 1477 1478 1479 1480 1482 1482 1483 1484 1485 1486 1486 1487 1489 1490 1491 1493 1494 1494 1495 1495 1496 1498 1499 1499 1500 1500 1501 1502 1502 1503 1503 1504 1504 1504 1504 1503 1503 1503 1504 1504 1504 1505 1505 1505 1506
1473 1472 1471 1469 1468 1467 1466 1465 1464 1463 1462 1462 1463 1463 1464 1464 1464 1464 1464 1464 1465 1470 1473 1472 1471 1470 1469 1468 1468 1468 1469 1469 1470 1471 1471 1472 1472 1473 1474 1475 1476 1477 1478 1479 1480 1480 1481 1482 1483 1484 1485 1486 1488 1488 1489 1490 1490 1491 1491 1492 1493 1495 1496 1497 1498 1499 1500 1500 1501 1501 1502 1502 1502 1501 1501 1501 1501 1502 1502 1503 1503 1503 1503 1504 1503
1471 1470 1468 1467 1465 1465 1464 1463 1462 1461 1460 1460 1461 1461 1462 1462 1462 1463 1464 1464 1464 1467 1471 1472 1470 1469 1469 1467 1467 1468 1468 1469 1470 1471 1471 1472 1472 1473 1474 1475 1476 1477 1478 1478 1479 1479 1479 1480 1481 1483 1484 1486 1486 1487 1487 1487 1488 1488 1489 1490 1491 1492 1494 1495 1496 1497 1498 1499 1499 1500 1500 1500 1499 1500 1500 1500 1500 1501 1501 1501 1501 1501 1502 1502 1502
1469 1468 1466 1464 1463 1463 1461 1461 1460 1459 1458 1458 1458 1459 1460 1460 1460 1460 1461 1463 1464 1465 1469 1471 1469 1469 1468 1467 1466 1467 1467 1468 1469 1470 1471 1472 1472 1473 1474 1475 1476 1477 1478 1478 1479 1479 1479 1480 1481 1482 1483 1484 1485 1485 1486 1486 1486 1487 1488 1488 1490 1491 1492 1494 1494 1495 1496 1497 1497 1498 1498 1498 1498 1498 1499 1499 1499 1499 1499 1500 1500 1500 1500 1500 1500
1467 1466 1464 1463 1462 1461 1460 1460 1459 1458 1457 1456 1456 1457 1457 1458 1458 1457 1458 1461 1461 1463 1467 1470 1469 1468 1467 1466 1465 1466 1466 1466 1468 1469 1470 1471 1471 1472 1473 1474 1475 1476 1477 1477 1478 1478 1478 1479 1479 1480 1482 1483 1483 1484 1485 1485 1486 1486 1487 1488 1489 1490 1491 1492 1492 1493 1494 1495 1496 1496 1496 1496 1497 1497 1497 1497 1498 1498 1498 1498 1498 1498 1498 1498 1498
1465 1464 1463 1462 1461 1460 1459 1459 1458 1457 1456 1455 1455 1455 1455 1456 1457 1457 1457 1458 1458 1459 1464 1468 1468 1467 1466 1465 1464 1464 1464 1465 1466 1467 1468 1469 1470 1470 1471 1472 1473 1474 1474 1475 1475 1476 1476 1477 1478 1479 1480 1481 1482 1483 1484 1484 1485 1486 1486 1487 1488 1489 1489 1490 1490 1491 1492 1493 1494 1494 1494 1495 1496 1496 1496 1496 1496 1496 1496 1497 1497 1497 1497 1497 1497
1463 1463 1462 1461 1460 1458 1458 1458 1457 1457 1456 1455 1454 1453 1453 1454 1455 1456 1457 1458 1457 1458 1461 1464 1466 1466 1466 1465 1463 1463 1463 1464 1465 1466 1468 1468 1469 1469 1470 1471 1471 1471 1472 1473 1473 1474 1475 1476 1477 1478 1479 1480 1481 1482 1483 1483 1484 1485 1486 1486 1487 1487 1488 1488 1489 1489 1491 1491 1492 1493 1493 1494 1494 1494 1494 1495 1495 1495 1495 1495 1496 1496 1496 1496 1496
1462 1462 1461 1460 1459 1457 1456 1456 1456 1456 1455 1454 1453 1453 1452 1453 1453 1454 1455 1456 1457 1458 1459 1462 1463 1464 1465 1464 1463 1463 1463 1463 1464 1466 1467 1468 1469 1469 1469 1470 1470 1470 1471 1472 1472 1473 1474 1475 1477 1478 1479 1479 1480 1481 1482 1482 1483 1484 1484 1485 1486 1486 1487 1487 1487 1488 1490 1490 1491 1492 1492 1493 1493 1493 1493 1494 1494 1494 1494 1494 1494 1495 1495 1495 1495
1461 1460 1460 1459 1457 1456 1455 1455 1455 1454 1454 1453 1454 1453 1452 1452 1452 1453 1453 1454 1456 1457 1459 1460 1461 1462 1463 1463 1463 1463 1463 1463 1464 1466 1467 1467 1468 1469 1469 1470 1470 1470 1471 1472 1473 1474 1474 1476 1477 1478 1478 1479 1480 1480 1481 1482 1482 1483 1483 1484 1485 1485 1486 1487 1487 1487 1488 1489 1490 1490 1491 1491 1492 1492 1492 1493 1493 1493 1493 1493 1493 1493 1494 1494 1494
1459 1458 1458 1457 1456 1455 1455 1454 1454 1454 1452 1451 1452 1453 1453 1453 1452 1452 1452 1453 1455 1456 1457 1457 1458 1460 1461 1461 1462 1463 1463 1463 1464 1465 1466 1467 1468 1468 1469 1470 1470 1471 1471 1472 1473 1474 1475 1477 1478 1478 1479 1480 1480 1480 1481 1482 1482 1483 1483 1483 1484 1484 1485 1486 1486 1487 1487 1487 1488 1489 1489 1490 1491 1491 1492 1492 1492 1492 1492 1492 1492 1493 1493 1493 1493
1458 1457 1456 1455 1454 1454 1454 1453 1453 1453 1451 1449 1449 1451 1453 1453 1452 1451 1452 1452 1453 1454 1455 1455 1456 1457 1459 1460 1461 1462 1462 1463 1463 1464 1465 1466 1467 1468 1468 1469 1470 1470 1471 1472 1473 1474 1475 1478 1479 1479 1480 1480 1480 1481 1481 1482 1482 1482 1483 1483 1483 1483 1484 1485 1485 1486 1486 1486 1487 1487 1487 1488 1489 1490 1490 1491 1491 1491 1491 1491 1491 1492 1492 1492 1492
1456 1455 1454 1453 1453 1453 1453 1452 1452 1451 1450 1449 1448 1449 1451 1452 1451 1451 1452 1452 1452 1453 1454 1454 1455 1455 1457 1458 1459 1460 1461 1462 1462 1463 1464 1465 1466 1467 1468 1468 1469 1470 1471 1472 1473 1473 1474 1477 1479 1480 1480 1480 1481 1481 1481 1481 1482 1482 1482 1482 1482 1482 1483 1483 1484 1485 1485 1486 1486 1486 1487 1487 1488 1488 1489 1489 1490 1490 1490 1490 1490 1491 1491 1491 1491
1453 1453 1453 1453 1452 1451 1451 1451 1451 1450 1449 1448 1448 1448 1450 1451 1451 1451 1452 1452 1452 1452 1453 1453 1453 1454 1455 1456 1457 1459 1460 1461 1461 1462 1463 1464 1465 1466 1467 1468 1469 1470 1470 1471 1473 1474 1474 1475 1477 1480 1481 1481 1481 1481 1481 1481 1481 1481 1482 1483 1483 1482 1482 1483 1483 1483 1484 1485 1485 1486 1487 1488 1487 1487 1488 1488 1488 1489 1489 1489 1490 1490 1490 1491 1491
1451 1451 1452 1452 1451 1451 1450 1450 1449 1449 1449 1448 1448 1449 1451 1452 1451 1451 1452 1452 1453 1453 1452 1452 1452 1453 1454 1455 1456 1457 1458 1459 1460 1461 1462 1463 1464 1465 1466 1467 1468 1469 1470 1471 1472 1474 1474 1474 1475 1478 1480 1480 1481 1481 1481 1481 1481 1482 1482 1483 1483 1483 1483 1482 1483 1483 1483 1484 1485 1485 1486 1487 1487 1487 1487 1487 1488 1488 1488 1489 1490 1490 1489 1489 1489
1449 1449 1450 1450 1450 1449 1449 1448 1448 1448 1448 1448 1447 1448 1450 1452 1453 1453 1454 1455 1455 1454 1452 1452 1452 1453 1454 1455 1456 1457 1457 1458 1459 1460 1461 1463 1464 1465 1466 1467 1468 1468 1470 1471 1472 1473 1474 1475 1475 1476 1478 1480 1480 1480 1481 1482 1482 1482 1482 1483 1483 1483 1483 1483 1482 1482 1482 1483 1484 1485 1485 1486 1486 1486 1486 1487 1487 1488 1488 1488 1489 1488 1488 1488 1488
1448 1448 1448 1448 1448 1448 1448 1448 1448 1448 1448 1448 1448 1447 1448 1450 1452 1453 1455 1456 1456 1455 1454 1453 1453 1454 1454 1455 1456 1456 1457 1457 1458 1459 1461 1462 1463 1465 1466 1467 1467 1468 1469 1470 1471 1472 1473 1474 1474 1475 1477 1478 1479 1479 1480 1481 1481 1481 1482 1482 1482 1483 1483 1483 1482 1482 1482 1482 1483 1483 1484 1484 1484 1484 1485 1485 1486 1487 1487 1487 1487 1487 1487 1486 1486
1447 1447 1446 1446 1446 1447 1447 1447 1447 1447 1447 1447 1447 1447 1447 1448 1450 1452 1454 1455 1454 1454 1454 1453 1453 1453 1454 1455 1455 1456 1456 1457 1458 1459 1460 1462 1463 1464 1465 1466 1467 1468 1468 1469 1470 1471 1472 1474 1474 1475 1476 1477 1478 1479 1479 1480 1481 1481 1481 1481 1482 1482 1482 1482 1482 1482 1482 1482 1482 1482 1483 1483 1483 1483 1484 1484 1485 1485 1485 1485 1486 1486 1486 1485 1485
1447 1446 1446 1446 1446 1446 1446 1446 1446 1446 1445 1446 1446 1445 1445 1447 1448 1451 1453 1453 1452 1452 1452 1453 1453 1453 1453 1454 1455 1455 1456 1457 1457 1458 1460 1461 1462 1463 1464 1465 1466 1467 1468 1468 1469 1470 1472 1474 1474 1475 1476 1476 1477 1478 1479 1479 1480 1481 1481 1481 1482 1482 1482 1482 1482 1481 1481 1481 1481 1482 1482 1482 1483 1483 1483 1483 1484 1484 1484 1484 1484 1485 1485 1485 1485
1446 1445 1445 1445 1445 1445 1444 1444 1445 1444 1444 1445 1445 1444 1444 1446 1448 1449 1451 1451 1451 1451 1451 1452 1452 1452 1452 1453 1454 1455 1455 1456 1457 1458 1459 1459 1460 1462 1463 1464 1465 1466 1467 1468 1468 1469 1471 1473 1474 1474 1475 1475 1476 1476 1477 1478 1479 1480 1481 1482 1482 1482 1482 1482 1482 1481 1481 1481 1480 1481 1481 1481 1482 1482 1482 1483 1483 1483 1483 1483 1483 1483 1484 1484 1484
1444 1445 1445 1444 1444 1443 1442 1442 1443 1443 1443 1444 1444 1443 1444 1445 1447 1448 1448 1449 1449 1450 1450 1450 1450 1450 1451 1452 1453 1454 1455 1455 1457 1458 1459 1459 1460 1460 1461 1463 1464 1464 1466 1467 1468 1469 1470 1471 1472 1472 1473 1474 1474 1475 1475 1476 1477 1477 1479 1480 1482 1483 1484 1483 1483 1482 1481 1480 1480 1480 1480 1480 1480 1481 1481 1482 1482 1482 1482 1482 1482 1482 1482 1483 1483
1443 1443 1444 1443 1443 1442 1441 1441 1441 1442 1443 1443 1443 1443 1443 1444 1445 1445 1446 1447 1447 1447 1447 1448 1448 1448 1449 1450 1451 1452 1454 1455 1456 1458 1459 1460 1460 1461 1461 1462 1463 1464 1465 1466 1467 1467 1468 1469 1470 1471 1472 1472 1472 1472 1473 1473 1474 1475 1475 1476 1478 1481 1483 1483 1483 1482 1481 1480 1479 1479 1479 1479 1479 1479 1480 1480 1480 1480 1480 1480 1480 1481 1481 1481 1481
1442 1442 1443 1442 1441 1441 1440 1440 1440 1441 1442 1443 1443 1443 1443 1443 1444 1444 1444 1445 1445 1445 1445 1446 1446 1447 1448 1449 1450 1452 1453 1455 1456 1457 1458 1459 1460 1461 1462 1462 1463 1464 1464 1465 1465 1466 1466 1467 1468 1470 1471 1472 1471 1471 1471 1471 1472 1473 1474 1474 1474 1477 1479 1481 1482 1482 1481 1480 1479 1478 1478 1478 1477 1478 1478 1478 1478 1478 1478 1479 1479 1479 1479 1479 1480
1443 1442 1442 1441 1441 1440 1439 1439 1439 1441 1441 1442 1443 1443 1442 1442 1443 1443 1444 1444 1443 1443 1444 1444 1444 1446 1447 1448 1449 1451 1453 1454 1455 1456 1458 1459 1460 1461 1462 1463 1463 1464 1464 1464 1464 1465 1464 1465 1466 1469 1470 1470 1469 1469 1469 1470 1470 1471 1472 1472 1472 1473 1475 1477 1479 1479 1478 1478 1477 1477 1477 1476 1476 1475 1475 1475 1476 1476 1476 1476 1477 1477 1477 1477 1478
1442 1441 1440 1440 1440 1440 1439 1439 1439 1439 1440 1440 1441 1441 1441 1441 1441 1442 1442 1442 1442 1442 1443 1443 1444 1445 1447 1448 1449 1451 1452 1453 1454 1455 1457 1458 1460 1461 1461 1461 1461 1461 1462 1462 1463 1463 1463 1464 1466 1468 1469 1468 1467 1467 1467 1467 1468 1468 1469 1469 1468 1469 1470 1472 1475 1475 1475 1474 1474 1475 1474 1474 1474 1473 1473 1473 1473 1473 1473 1474 1474 1474 1474 1475 1475
1441 1440 1439 1439 1439 1439 1439 1439 1438 1438 1439 1439 1440 1440 1440 1440 1440 1440 1441 1442 1442 1442 1443 1444 1444 1446 1447 1448 1450 1451 1452 1452 1453 1454 1455 1457 1457 1457 1458 1459 1460 1461 1462 1463 1464 1465 1466 1467 1467 1467 1467 1467 1465 1465 1465 1465 1466 1466 1467 1467 1467 1467 1468 1470 1472 1472 1472 1472 1472 1471 1471 1471 1471 1471 1470 1470 1470 1470 1470 1471 1472 1472 1472 1471 1471
1440 1440 1439 1439 1439 1439 1438 1438 1438 1438 1438 1438 1438 1439 1440 1440 1440 1441 1442 1442 1442 1443 1443 1444 1445 1446 1448 1449 1449 1450 1450 1450 1450 1451 1453 1455 1456 1457 1458 1460 1462 1462 1463 1464 1465 1466 1466 1466 1467 1467 1466 1466 1465 1465 1465 1465 1465 1465 1466 1466 1466 1466 1467 1467 1468 1469 1469 1469 1469 1468 1468 1468 1467 1467 1467 1466 1467 1467 1467 1468 1468 1469 1469 1469 1469
1439 1439 1439 1439 1439 1438 1439 1439 1438 1438 1438 1437 1437 1438 1439 1440 1440 1441 1441 1442 1442 1443 1444 1445 1445 1447 1448 1448 1447 1447 1447 1448 1449 1451 1454 1456 1458 1459 1460 1461 1462 1461 1461 1462 1464 1464 1465 1465 1466 1466 1466 1465 1465 1465 1465 1465 1465 1465 1465 1465 1464 1464 1464 1465 1465 1465 1466 1466 1465 1464 1465 1465 1464 1464 1463 1463 1464 1464 1465 1465 1466 1467 1467 1467 1467
1438 1438 1438 1438 1438 1439 1439 1439 1438 1437 1437 1437 1437 1437 1439 1440 1441 1441 1442 1442 1443 1444 1446 1446 1446 1446 1447 1448 1447 1447 1448 1450 1452 1454 1455 1456 1457 1458 1459 1460 1461 1461 1462 1463 1464 1464 1465 1465 1466 1465 1465 1465 1466 1465 1465 1465 1464 1464 1463 1463 1462 1462 1462 1462 1462 1462 1462 1462 1462 1461 1461 1461 1461 1461 1461 1461 1462 1463 1463 1463 1464 1464 1465 1465 1465
1437 1437 1438 1438 1438 1439 1439 1438 1438 1438 1438 1438 1437 1438 1439 1440 1441 1442 1443 1443 1444 1445 1447 1447 1447 1447 1448 1449 1450 1451 1453 1454 1455 1456 1457 1458 1458 1459 1460 1461 1462 1463 1463 1464 1465 1465 1465 1465 1465 1465 1465 1465 1465 1464 1464 1463 1463 1462 1461 1461 1460 1460 1459 1459 1459 1459 1459 1459 1459 1458 1458 1458 1459 1459 1460 1460 1461 1462 1462 1462 1462 1463 1463 1463 1463